{"data":{"norad_id":58485,"epoch":"2026-09-20T20:47:18.033216Z","epoch_age_seconds":115144,"freshness":"FRESH","line1":"1 58485U 23186N   26263.86618094  .00000203  00000+0  16886-4 0  9998","line2":"2 58485  43.0005  41.5887 0000930 265.8894  94.1852 15.27578572155730","mean_motion":15.27578572,"eccentricity":9.3e-5,"inclination_deg":43.0005,"raan_deg":41.5887,"arg_perigee_deg":265.8894,"mean_anomaly_deg":94.1852,"bstar":1.6886e-5,"rev_number":15573,"period_min":94.266836835415,"perigee_km":482.41528128411,"apogee_km":483.6914626933,"semimajor_km":6861.1903719887,"source":"CELESTRAK","updated_at":"2026-09-21T09:00:33.882559Z"}}